Weather History for Charleston, SC

Change the Weather History Date:

Thursday, November 28, 2013

  Actual Average Record
Temperature  
Mean Temperature 40 °F 55 °F  
Max Temperature 50 °F 66 °F 81 °F (1990)
Min Temperature 29 °F 44 °F 21 °F (1938)
Degree Days  
Heating Degree Days 25 10  
Month to date heating degree days 227 201  
Since 1 July heating degree days 269 270  
Cooling Degree Days 0 1  
Month to date cooling degree days 34 33  
Year to date cooling degree days 2429 2297  
Moisture  
Dew Point 24 °F    
Average Humidity 65    
Maximum Humidity 100    
Minimum Humidity 29    
Precipitation  
Precipitation 0.00 in 0.08 in 1.55 in (1976)
Month to date precipitation 3.52 2.26  
Year to date precipitation 55.96 47.75  
Sea Level Pressure  
Sea Level Pressure 30.40 in    
Wind  
Wind Speed 5 mph (NNE)    
Max Wind Speed 18 mph    
Max Gust Speed 22 mph    
Visibility 10 miles    
Events      
T = Trace of Precipitation, MM = Missing Value Source: NWS Daily Summary

Daily Weather History Graph

Daily Weather History Graph

Search for Another Location

Airport:

Trip Planner

Search our weather history database for the weather conditions in past years. The results will help you decide how hot, cold, wet, or windy it might be!

Date:

Astronomy

Nov. 28, 2013 Rise Set
Actual Time 7:02 AM EST 5:13 PM EST
Civil Twilight 6:35 AM EST 5:40 PM EST
Nautical Twilight 6:05 AM EST 6:11 PM EST
Astronomical Twilight 5:35 AM EST 6:40 PM EST
Moon 2:17 AM EST (11/28) 2:10 PM EST (11/28)
Length of Visible Light 11h 05m
Length of Day
10h 11m
Waning Crescent, 22% of the Moon is Illuminated
Nov 28
Waning Crescent
Dec 2
New
Dec 9
First Quarter
Dec 17
Full
Dec 25
Last Quarter

Hourly Weather History & Observations

Time (EST) Temp. Windchill Dew Point Humidity Pressure Visibility Wind Dir Wind Speed Gust Speed Precip Events Conditions
12:56 AM 35.1 °F 28.6 °F 30.0 °F 82% 30.24 in 10.0 mi NNW 8.1 mph - N/A   Clear
1:56 AM 33.1 °F 26.9 °F 28.0 °F 82% 30.26 in 10.0 mi North 6.9 mph - N/A   Clear
2:56 AM 32.0 °F 28.7 °F 27.0 °F 82% 30.28 in 10.0 mi NNW 3.5 mph - N/A   Clear
3:56 AM 30.0 °F 23.2 °F 25.0 °F 82% 30.29 in 10.0 mi North 6.9 mph - N/A   Clear
4:56 AM 30.9 °F 23.5 °F 25.0 °F 79% 30.31 in 10.0 mi NNE 8.1 mph - N/A   Clear
5:56 AM 32.0 °F 24.2 °F 21.0 °F 64% 30.35 in 10.0 mi NNE 9.2 mph - N/A   Clear
6:56 AM 30.9 °F 22.8 °F 19.9 °F 64% 30.37 in 10.0 mi NNE 9.2 mph - N/A   Clear
7:56 AM 33.1 °F 24.9 °F 19.9 °F 59% 30.40 in 10.0 mi NE 10.4 mph - N/A   Clear
8:56 AM 36.0 °F 26.3 °F 19.0 °F 50% 30.43 in 10.0 mi NNE 16.1 mph - N/A   Clear
9:56 AM 39.0 °F 32.8 °F 19.9 °F 46% 30.44 in 10.0 mi NNE 9.2 mph - N/A   Clear
10:56 AM 42.1 °F 37.7 °F 19.0 °F 40% 30.44 in 10.0 mi North 6.9 mph - N/A   Clear
11:56 AM 45.0 °F 40.1 °F 19.0 °F 36% 30.42 in 10.0 mi NNE 9.2 mph - N/A   Clear
12:56 PM 46.9 °F - 19.0 °F 33% 30.41 in 10.0 mi Variable 4.6 mph - N/A   Clear
1:56 PM 48.9 °F - 19.0 °F 31% 30.40 in 10.0 mi ENE 5.8 mph - N/A   Partly Cloudy
2:56 PM 50.0 °F - 19.9 °F 31% 30.41 in 10.0 mi Calm Calm - N/A   Partly Cloudy
3:56 PM 48.2 °F - 19.9 °F 33% 30.42 in 10.0 mi NE 3.5 mph - N/A   Partly Cloudy
4:56 PM 46.0 °F 44.8 °F 23.0 °F 40% 30.43 in 10.0 mi ENE 3.5 mph - N/A   Partly Cloudy
5:56 PM 42.1 °F - 27.0 °F 55% 30.46 in 10.0 mi Calm Calm - N/A   Partly Cloudy
6:56 PM 36.5 °F - 28.0 °F 71% 30.49 in 10.0 mi Calm Calm - N/A   Partly Cloudy
7:56 PM 35.1 °F - 30.0 °F 82% 30.49 in 10.0 mi Calm Calm - N/A   Partly Cloudy
8:56 PM 32.9 °F - 31.1 °F 93% 30.50 in 10.0 mi Calm Calm - N/A   Partly Cloudy
9:56 PM 32.9 °F 29.8 °F 32.0 °F 96% 30.50 in 9.0 mi NW 3.5 mph - N/A   Partly Cloudy
10:56 PM 34.0 °F - 30.0 °F 85% 30.50 in 10.0 mi Calm Calm - N/A   Clear
11:56 PM 33.1 °F 30.0 °F 28.9 °F 85% 30.50 in 10.0 mi NNW 3.5 mph - N/A   Partly Cloudy